Location: ??
(35.5052°N, 139.7262°E)
Time: 03:28:49
(UTC+00:00)

Cosmos 1766 Rocket - Pass Details

Date: 20 June 2021
Orbit: 604 x 633 km, 82.5° (Epoch: 26 July)

Event Time Altitude Azimuth Distance (km) Brightness Sun altitude
Exits shadow 17:33:36 40° 231° (SW) 931 3.9 -18.5°
Maximum altitude 17:34:47 52° 279° (W) 782 3.8 -18.4°
Drops below altitude 10° 17:39:10 10° 356° (N) 2,020 6.8 -17.8°
Sets 17:41:29 0° 2° (N) 2,934 7.8 -17.5°
